date,time,DOY,Ta_1_1_1,RH_1_1_1,LWin_1_1_1,LWout_1_1_1,SWin_1_1_1,SWout_1_1_1,PPFD_1_1_1,SWC_1_1_1,Ts_1_1_1
[yyyy-mm-dd],[HH:MM],[ddd.ddd],[K],[%],[W+1m-2],[W+1m-2],[W+1m-2],[W+1m-2],[µmol+1m-2s-1],[m+3m-3],[K]
2013-02-02,00:30,33.020,252.55866666666671,70.217666666666659,-4.8473333333333324,-9999.0,-0.57933333333333337,-1.1840000000000002,1.13333333333333341E-002,-9999.0,279.90999999999991
2013-02-02,01:00,33.041,252.42066666666670,68.283666666666676,-4.0223333333333331,-9999.0,-0.40300000000000008,-1.0566666666666669,5.00000000000000097E-003,-9999.0,279.90999999999991
2013-02-02,01:30,33.062,252.27166666666670,67.788666666666657,-4.1656666666666666,-9999.0,-0.34166666666666662,-1.1396666666666668,3.99999999999999922E-003,-9999.0,279.90999999999991
2013-02-02,02:00,33.083,252.14166666666674,68.232333333333315,-4.8416666666666668,-9999.0,-0.15499999999999997,-1.5206666666666664,6.00000000000000099E-003,-9999.0,279.90999999999991
2013-02-02,02:30,33.104,251.99433333333326,69.597999999999999,-5.3173333333333339,-9999.0,-7.53333333333333494E-002,-1.7163333333333335,-1.15648231731787138E-019,-9999.0,279.90999999999991
2013-02-02,03:00,33.124,251.86100000000013,70.633333333333340,-5.2960000000000020,-9999.0,-7.30000000000000093E-002,-1.5510000000000006,2.66666666666666701E-003,-9999.0,279.90999999999991
2013-02-02,03:30,33.145,251.75200000000004,71.707333333333324,-5.5986666666666682,-9999.0,-0.10833333333333330,-1.6376666666666666,-4.00000000000000008E-003,-9999.0,279.90999999999991
2013-02-02,04:00,33.166,251.60533333333333,72.523666666666671,-6.6669999999999998,-9999.0,-6.66666666666666536E-003,-2.2120000000000002,3.33333333333333355E-003,-9999.0,279.90999999999991
2013-02-02,04:30,33.187,251.42899999999997,72.996000000000009,-7.9776666666666660,-9999.0,0.25300000000000000,-2.7129999999999996,5.66666666666666707E-003,-9999.0,279.90999999999991
2013-02-02,05:00,33.208,251.24600000000007,73.679333333333332,-8.7283333333333335,-9999.0,0.38233333333333330,-2.7529999999999997,2.66666666666666658E-003,-9999.0,279.90999999999991
2013-02-02,05:30,33.229,251.33933333333334,74.317000000000007,-8.7503333333333337,-9999.0,0.43866666666666670,-2.6383333333333332,2.33333333333333396E-003,-9999.0,279.90999999999991
2013-02-02,06:00,33.249,251.25066666666666,75.029333333333341,-9.0023333333333326,-9999.0,0.33000000000000002,-2.7970000000000010,3.33333333333333355E-003,-9999.0,279.90999999999991
2013-02-02,06:30,33.270,251.20933333333329,75.744000000000000,-8.7620000000000005,-9999.0,0.16400000000000003,-2.2690000000000001,-6.66666666666666319E-004,-9999.0,279.90999999999991
2013-02-02,07:00,33.291,251.28066666666669,76.122333333333316,-8.8563333333333354,-9999.0,0.18866666666666665,-2.4136666666666660,0.12100000000000001,-9999.0,279.90999999999991
2013-02-02,07:30,33.312,251.28666666666675,75.693333333333342,-8.4133333333333340,-9999.0,1.7363333333333335,3.5603333333333329,8.2910000000000021,-9999.0,279.90999999999991
2013-02-02,08:00,33.333,251.40200000000004,74.915666666666667,-9.3025000000000002,-9999.0,12.804333333333334,58.878666666666668,66.823666666666668,-9999.0,279.90999999999991
2013-02-02,08:30,33.354,251.74900000000008,75.577333333333343,-8.3613333333333326,-9999.0,11.097333333333333,48.111333333333327,98.533333333333346,-9999.0,279.90999999999991
2013-02-02,09:00,33.374,252.59199999999998,75.876333333333349,-8.2009523809523817,-9999.0,34.074333333333328,162.67066666666668,285.05166666666668,-9999.0,279.90999999999991
2013-02-02,09:30,33.395,254.17999999999992,76.508333333333312,-9999.0,-9999.0,48.478666666666655,259.93566666666669,457.61466666666689,-9999.0,279.90999999999991
2013-02-02,10:00,33.416,255.40300000000008,76.593333333333334,-9999.0,-9999.0,62.070666666666668,321.40699999999998,580.35966666666661,-9999.0,279.90999999999991
2013-02-02,10:30,33.437,256.26300000000003,73.640000000000001,-9.5975000000000001,-9999.0,65.625999999999991,346.80233333333337,643.49699999999984,-9999.0,279.90999999999991
2013-02-02,11:00,33.458,256.87600000000003,70.960999999999984,-7.1183333333333341,-9999.0,70.103000000000009,313.34100000000001,606.27100000000007,-9999.0,279.90999999999991
2013-02-02,11:30,33.479,257.15633333333335,68.737000000000009,-7.6213333333333333,-9999.0,59.695999999999991,266.66433333333333,526.70299999999997,-9999.0,279.90999999999991
2013-02-02,12:00,33.499,257.59133333333324,66.962666666666664,-7.9065517241379322,-9999.0,78.140666666666647,379.69200000000001,728.62833333333333,-9999.0,279.90999999999991
2013-02-02,12:30,33.520,257.88466666666670,64.489666666666665,-7.2066666666666643,-9999.0,74.414000000000001,349.28866666666659,676.46899999999994,-9999.0,279.90999999999991
2013-02-02,13:00,33.541,258.39466666666675,64.110333333333315,-7.1656666666666666,-9999.0,74.226333333333343,364.15466666666663,698.68466666666654,-9999.0,279.90999999999991
2013-02-02,13:30,33.562,258.35199999999998,63.680333333333337,-8.3689999999999998,-9999.0,43.214000000000006,215.18833333333339,431.05633333333333,-9999.0,279.90999999999991
2013-02-02,14:00,33.583,258.86333333333340,61.171000000000006,-8.4304000000000006,-9999.0,54.343666666666664,304.30100000000004,578.93200000000002,-9999.0,279.90999999999991
2013-02-02,14:30,33.604,258.85300000000001,62.397333333333329,-8.8875862068965503,-9999.0,45.326666666666668,254.35733333333332,487.79000000000002,-9999.0,279.90999999999991
2013-02-02,15:00,33.624,259.48966666666666,61.070999999999991,-9.0908333333333342,-9999.0,49.638666666666680,287.71166666666670,524.36766666666654,-9999.0,279.90999999999991
2013-02-02,15:30,33.645,259.61566666666664,60.240333333333339,-9999.0,-9999.0,30.855333333333341,181.71366666666671,343.13933333333347,-9999.0,279.90999999999991
2013-02-02,16:00,33.666,259.67466666666667,61.526333333333341,-9999.0,-9999.0,21.384666666666671,115.58266666666665,218.87600000000009,-9999.0,279.90999999999991
2013-02-02,16:30,33.687,259.60300000000007,61.863333333333323,-9999.0,-9999.0,11.449999999999999,52.873333333333335,107.95200000000000,-9999.0,279.90999999999991
2013-02-02,17:00,33.708,259.43700000000001,62.409333333333322,-9999.0,-9999.0,4.5246666666666657,17.642999999999997,38.659000000000006,-9999.0,279.90999999999991
2013-02-02,17:30,33.729,259.02533333333332,64.459999999999994,-9999.0,-9999.0,6.49999999999999606E-002,-1.5543333333333333,3.8203333333333345,-9999.0,279.90999999999991
2013-02-02,18:00,33.749,258.76533333333339,65.367999999999995,-9999.0,-9999.0,-0.14333333333333340,-3.4193333333333329,5.13333333333333419E-002,-9999.0,279.90999999999991
2013-02-02,18:30,33.770,258.29733333333337,68.000666666666675,-9.8100000000000005,-9999.0,-0.21033333333333329,-2.9049999999999998,7.00000000000000101E-003,-9999.0,279.90999999999991
2013-02-02,19:00,33.791,258.14400000000006,68.856000000000009,-9.6170588235294119,-9999.0,-0.35666666666666663,-2.1033333333333331,8.00000000000000190E-003,-9999.0,279.90999999999991
2013-02-02,19:30,33.812,257.86500000000001,69.284666666666681,-9999.0,-9999.0,-6.79999999999999910E-002,-3.8799999999999999,5.66666666666666621E-003,-9999.0,279.90999999999991
2013-02-02,20:00,33.833,257.64100000000002,68.591333333333338,-9999.0,-9999.0,0.13799999999999998,-3.1673333333333331,2.66666666666666571E-003,-9999.0,279.90999999999991
2013-02-02,20:30,33.854,257.46266666666673,67.712000000000003,-9.0650000000000013,-9999.0,-0.26933333333333337,-1.5816666666666661,3.66666666666666703E-003,-9999.0,279.90999999999991
2013-02-02,21:00,33.874,257.33733333333339,67.091666666666669,-7.7750000000000012,-9999.0,-0.41033333333333333,-1.2350000000000001,-1.00000000000000045E-003,-9999.0,279.90999999999991
2013-02-02,21:30,33.895,257.05333333333340,67.489999999999995,-7.7300000000000013,-9999.0,-0.17499999999999999,-1.8343333333333334,7.66666666666666625E-003,-9999.0,279.90999999999991
2013-02-02,22:00,33.916,256.92100000000005,67.318666666666658,-5.9016666666666664,-9999.0,-0.29199999999999998,-1.1200000000000001,1.66666666666666634E-003,-9999.0,279.90999999999991
2013-02-02,22:30,33.937,256.70666666666676,68.002666666666670,-5.5596666666666685,-9999.0,-0.36399999999999999,-1.2283333333333328,2.33333333333333439E-003,-9999.0,279.90999999999991
2013-02-02,23:00,33.958,256.57366666666672,68.364999999999995,-5.2149999999999990,-9999.0,-0.30466666666666675,-1.1390000000000000,1.00000000000000019E-002,-9999.0,279.90999999999991
2013-02-02,23:30,33.979,256.50299999999999,68.344000000000008,-5.1509999999999998,-9999.0,-0.25266666666666671,-1.1943333333333332,6.66666666666666623E-003,-9999.0,279.90999999999991
2013-02-03,00:00,34.000,256.38833333333343,69.057666666666663,-4.9740000000000002,-9999.0,-0.21733333333333335,-1.1880000000000002,2.33333333333333309E-003,-9999.0,279.90999999999991
